Weather History for Spokane, WA

Change the Weather History Date:

Friday, June 6, 2014

  Actual Average Record
Temperature  
Mean Temperature 64 °F 60 °F  
Max Temperature 75 °F 71 °F 93 °F (1970)
Min Temperature 53 °F 49 °F 34 °F (1962)
Degree Days  
Heating Degree Days 1 6  
Month to date heating degree days 7 38  
Since 1 June heating degree days 7 38  
Since 1 July heating degree days 6594 6495  
Cooling Degree Days 0 1  
Month to date cooling degree days 3 6  
Year to date cooling degree days 9 20  
Since 1 June cooling degree days 3 6  
Growing Degree Days 13 (Base 50)    
Moisture  
Dew Point 23 °F    
Average Humidity 27    
Maximum Humidity 41    
Minimum Humidity 13    
Precipitation  
Precipitation 0.00 in 0.04 in 1.13 in (1941)
Month to date precipitation 0.14 0.32  
Year to date precipitation 7.54 7.95  
Snow  
Snow 0.00 in 0.00 in T in (1994)
Month to date snowfall 0.0 0.0  
Since 1 June snowfall 0.0 0.0  
Since 1 July snowfall 37.6 44.9  
Snow Depth 0.00 in    
Sea Level Pressure  
Sea Level Pressure 30.01 in    
Wind  
Wind Speed 6 mph (North)    
Max Wind Speed 14 mph    
Max Gust Speed 19 mph    
Visibility 10 miles    
Events      
T = Trace of Precipitation, MM = Missing Value Source: NWS Daily Summary

Daily Weather History Graph

Daily Weather History Graph

Search for Another Location

Airport:

Trip Planner

Search our weather history database for the weather conditions in past years. The results will help you decide how hot, cold, wet, or windy it might be!

Date:

Astronomy

Jun. 06, 2014 Rise Set
Actual Time 4:53 AM PDT 8:44 PM PDT
Civil Twilight 4:13 AM PDT 9:24 PM PDT
Nautical Twilight 3:19 AM PDT 10:19 PM PDT
Astronomical Twilight 1:58 AM PDT 11:41 PM PDT
Moon 1:41 PM PDT (6/6) 1:16 AM PDT (6/6)
Length of Visible Light 17h 10m
Length of Day
15h 50m
First Quarter, 59% of the Moon is Illuminated
Jun 6
First Quarter
Jun 12
Full
Jun 19
Last Quarter
Jun 27
New
Jul 5
First Quarter

Hourly Weather History & Observations

Time (PDT) Temp. Dew Point Humidity Pressure Visibility Wind Dir Wind Speed Gust Speed Precip Events Conditions
12:53 AM 57.9 °F 19.9 °F 23% 29.99 in 10.0 mi NE 9.2 mph - N/A   Mostly Cloudy
1:53 AM 54.0 °F 21.9 °F 29% 30.00 in 10.0 mi North 6.9 mph - N/A   Mostly Cloudy
2:53 AM 54.0 °F 21.9 °F 29% 30.00 in 10.0 mi NNE 5.8 mph - N/A   Mostly Cloudy
3:53 AM 54.0 °F 21.9 °F 29% 30.01 in 10.0 mi NNE 6.9 mph - N/A   Mostly Cloudy
4:53 AM 53.1 °F 23.0 °F 31% 30.02 in 10.0 mi Calm Calm - N/A   Mostly Cloudy
5:53 AM 53.1 °F 28.9 °F 40% 30.03 in 10.0 mi NE 3.5 mph - N/A   Mostly Cloudy
6:53 AM 54.0 °F 28.0 °F 37% 30.04 in 10.0 mi ENE 4.6 mph - N/A   Mostly Cloudy
7:53 AM 57.2 °F 28.4 °F 33% 30.07 in 10.0 mi NE 5.8 mph - N/A   Scattered Clouds
8:53 AM 62.1 °F 28.9 °F 29% 30.04 in 10.0 mi NE 10.4 mph - N/A   Scattered Clouds
9:53 AM 64.9 °F 24.1 °F 21% 30.04 in 10.0 mi North 6.9 mph - N/A   Scattered Clouds
10:53 AM 66.9 °F 19.0 °F 16% 30.04 in 10.0 mi NE 11.5 mph - N/A   Partly Cloudy
11:53 AM 69.1 °F 19.9 °F 15% 30.04 in 10.0 mi North - - N/A   Partly Cloudy
12:53 PM 71.1 °F 21.0 °F 15% 30.03 in 10.0 mi Calm Calm - N/A   Partly Cloudy
1:53 PM 70.0 °F 21.0 °F 16% 30.02 in 10.0 mi Calm Calm - N/A   Scattered Clouds
2:53 PM 72.0 °F 19.9 °F 14% 30.01 in 10.0 mi WNW 9.2 mph - N/A   Scattered Clouds
3:53 PM 72.0 °F 19.0 °F 13% 30.00 in 10.0 mi NW 10.4 mph 16.1 mph N/A   Scattered Clouds
4:53 PM 73.9 °F 19.9 °F 13% 29.99 in 10.0 mi NNW 11.5 mph - N/A   Scattered Clouds
5:53 PM 73.0 °F 19.9 °F 14% 29.98 in 10.0 mi NW 5.8 mph - N/A   Partly Cloudy
6:53 PM 73.0 °F 19.9 °F 14% 29.98 in 10.0 mi WNW 6.9 mph - N/A   Partly Cloudy
7:53 PM 71.1 °F 19.9 °F 14% 29.98 in 10.0 mi NNW 6.9 mph - N/A   Partly Cloudy
8:53 PM 69.1 °F 19.0 °F 15% 29.97 in 10.0 mi Calm Calm - N/A   Partly Cloudy
9:53 PM 64.0 °F 27.0 °F 25% 29.99 in 10.0 mi Calm Calm - N/A   Partly Cloudy
10:53 PM 62.1 °F 26.1 °F 25% 29.98 in 10.0 mi South 3.5 mph - N/A   Partly Cloudy
11:53 PM 54.0 °F 30.9 °F 41% 29.99 in 10.0 mi SSW 3.5 mph - N/A   Clear